Location: Arbon
(43.0005°N, 0.7472°E)
Time: 22:06:14
(UTC+00:00)

Explorer 7 - Pass Details

Date: 28 November 2020
Orbit: 484 x 678 km, 50.3° (Epoch: 25 January)

Event Time Altitude Azimuth Distance (km) Brightness Sun altitude
Rises 04:29:37 0° 280° (W) 2,849 - -27.9°
Reaches altitude 10° 04:32:12 10° 291° (WNW) 1,910 - -27.5°
Maximum altitude 04:36:04 30° 354° (N) 1,012 - -26.8°
Exits shadow 04:37:25 25° 28° (NNE) 1,144 8.6 -26.5°
Drops below altitude 10° 04:39:44 10° 57° (ENE) 1,803 10.1 -26.1°
Sets 04:42:06 0° 68° (ENE) 2,661 11.3 -25.7°
